This is the latest recevied weather packets stored in our database for station/object YO2LDK-13. If no packets are shown the sender has not sent any weather packets the latest 10 day(s).
| Time | Temp. | Humidity | Pressure | Rain* | Wind** | Luminosity | Snow |
|---|---|---|---|---|---|---|---|
| 1777869921 | 6.67° C | 73% | 1009.5 hPa | 0 mm | - | 22 W/m² | - |
| 1777869619 | 6.11° C | 73% | 1009.5 hPa | 0 mm | - | 20 W/m² | - |
| 1777869319 | 5.56° C | 74% | 1009.5 hPa | 0 mm | - | 19 W/m² | - |
| 1777869021 | 5° C | 76% | 1009.1 hPa | 0 mm | - | 18 W/m² | - |
| 1777868724 | 5° C | 77% | 1009.1 hPa | 0 mm | - | 17 W/m² | - |
| 1777868420 | 4.44° C | 75% | 1009.1 hPa | 0 mm | - | 16 W/m² | - |
| 1777868119 | 4.44° C | 79% | 1009.5 hPa | 0 mm | - | 15 W/m² | - |
| 1777867820 | 4.44° C | 79% | 1009.5 hPa | 0 mm | - | 13 W/m² | - |
| 1777867519 | 4.44° C | 79% | 1009.1 hPa | 0 mm | - | 12 W/m² | - |
| 1777867220 | 4.44° C | 79% | 1009.1 hPa | 0 mm | - | 10 W/m² | - |
| 1777866920 | 4.44° C | 78% | 1009.1 hPa | 0 mm | - | 9 W/m² | - |
| 1777866619 | 4.44° C | 78% | 1008.8 hPa | 0 mm | - | 8 W/m² | - |
| 1777865720 | 4.44° C | 77% | 1009.1 hPa | 0 mm | - | 4 W/m² | - |
| 1777865420 | 4.44° C | 77% | 1009.1 hPa | 0 mm | - | 3 W/m² | - |
| 1777847720 | 7.22° C | 68% | 1009.1 hPa | 0 mm | - | 0 W/m² | - |
| 1777847419 | 7.78° C | 68% | 1009.1 hPa | 0 mm | - | 0 W/m² | - |
| 1777847120 | 7.78° C | 67% | 1009.1 hPa | 0 mm | - | 0 W/m² | - |
| 1777846819 | 7.78° C | 67% | 1008.8 hPa | 0 mm | - | 0 W/m² | - |
| 1777845620 | 7.78° C | 68% | 1009.1 hPa | 0 mm | - | 0 W/m² | - |
| 1777845319 | 8.33° C | 65% | 1008.8 hPa | 0 mm | - | 0 W/m² | - |
| 1777844720 | 8.33° C | 65% | 1008.8 hPa | 0 mm | - | 0 W/m² | - |
| 1777844120 | 8.89° C | 63% | 1009.1 hPa | 0 mm | - | 0 W/m² | - |
| 1777842921 | 8.89° C | 60% | 1009.1 hPa | 0 mm | - | 0 W/m² | - |
| 1777842620 | 8.89° C | 60% | 1008.8 hPa | 0 mm | - | 0 W/m² | - |
| 1777842320 | 8.89° C | 59% | 1009.1 hPa | 0 mm | - | 0 W/m² | - |
* Rain latest hour (hover to see other rain measurements)
** Current wind speed in m/s (hover to see current wind gust speed)